Weather Roundup
Issued by NWS Corpus Christi, TX

Home | Current Version | Previous Version | Text Only | Print | Product List | Glossary On
Versions: 1 2 3 4 5 6 7 8 9 10 11 12 13 14 15 16 17 18 19 20 21 22 23 24 25 26 27 28 29 30 31 32 33 34 35 36 37 38 39 40 41 42 43 44 45 46 47 48 49 50
000
ASUS44 KCRP 210010
HRRCRP

SOUTH TEXAS REGIONAL WEATHER ROUNDUP
NATIONAL WEATHER SERVICE CORPUS CHRISTI TX
700 PM CDT SAT SEP 20 2014


TXZ229>244-210100-
...CORPUS CHRISTI AREA OBSERVATIONS...

CITY           SKY/WX    TMP DP  RH WIND       PRES   REMARKS
CORPUS CHRISTI MOCLDY    84  75  74 E13       29.87S HX  92
NAS CORPUS CHR NOT AVBL
ROCKPORT       PTCLDY    84  74  71 E14       29.87S HX  91
KINGSVILLE NAS MOCLDY    83  77  82 SE6       29.87F HX  92
ALICE          MOCLDY    82  76  81 E5        29.87F
FALFURRIAS     CLOUDY   N/A N/A N/A E3        29.87S
$$

...VICTORIA AREA OBSERVATIONS...

CITY           SKY/WX    TMP DP  RH WIND       PRES   REMARKS
VICTORIA       PTCLDY    81  77  88 E5        29.90S
BEEVILLE       FAIR      82  73  75 SE8       29.90R
PLEASANTON     PTCLDY    89  68  50 E9        29.89R HX  93
SAN ANTONIO    MOCLDY    85  71  63 E12       29.92R HX  90
$$

...LAREDO AREA OBSERVATIONS...

CITY           SKY/WX    TMP DP  RH WIND       PRES   REMARKS
LAREDO         MOCLDY    85  74  69 SE7       29.89S HX  92
COTULLA        MOCLDY    80  75  84 SE7       29.90R
DEL RIO        PTCLDY    89  69  51 E9        29.88R HX  93
MCALLEN        MOCLDY    84  76  76 E5        29.85S HX  93
HEBBRONVILLE   LGT RAIN  78  75  93 E5        29.90S
$$

...OTHER TEXAS OBSERVATIONS...

CITY           SKY/WX    TMP DP  RH WIND       PRES   REMARKS
BROWNSVILLE    PTCLDY    81  77  88 CALM      29.85S
HOUSTON        PTCLDY    84  71  65 E8        29.92R
COL. STATION   CLEAR     86  67  52 E9        29.92S
AUSTIN         LGT RAIN  82  71  69 SE10      29.92R
WACO           CLEAR     86  63  45 E10       29.93R
FORT WORTH     PTCLDY    89  58  34 SE12      29.93R
WICHITA FALLS  CLEAR     85  68  56 SE9       29.94S
LUBBOCK        CLEAR     76  67  73 SE10      30.04F
EL PASO        MOSUNNY   87  60  40 NE7       29.99R
$$

...MARINE OBSERVATIONS...

STATION/POSITION TIME  SKY/WX   TEMP    WIND        PRES    VSBY  WAVE   SWELL
                                AIR SEA DIR/SP/G                  HT/PER HT/PER
                 (UTC)          (F)     (DEG/KT/KT) (MB)    (MI)  (FT/S) (FT/S)
PORT ARANSAS     0000            83 85   60/ 14/ 15 1012.6R
BUOY 90 E PORT A 0000            83 85   60/ 16/ 19 1011.8R         4/ 6
BUOY 45 SE BAFFI 0000            83 85   60/  8/  8 1010.9R         2/ 6   2/ 6
BUOY 200 E PT IS 0000            84 86   70/  4/  6 1010.9R         2/ 7   2/ 7
BUOY 15 E GALVES 0000            83 84   80/ 14/ 17 1012.0F         4/ 6
$$


USA.gov is the U.S. government's official web portal to all federal, state and local government web resources and services.